Back to catalog

STARLINK-31086

AliveCommunicationsVLEO
NORAD 58626·PAYLOAD·🇺🇸 United States

Launched Dec 23, 2023 from Cape Canaveral Space Force Station

Loading…

Next Passes (next 24 hours)

TLE

FreshSource: CelesTrak SupGP

Epoch: Sep 14, 2026, 21:13 UTC

1 58626C 23203J   26257.88451389  .00027462  00000+0  99482-3 0  2577
2 58626  43.0028  78.2440 0001498 272.8047 340.5870 15.27559934    11

Track STARLINK-31086 in real time with AllMySat

Download on the App Store